Location: Charbonni�res
(45.9952°N, 2.9982°E)
Time: 16:42:49
(UTC+00:00)

CZ-2C R/B - Pass Details

Date: 29 November 2020
Orbit: 784 x 870 km, 98.2° (Epoch: 23 January)

Event Time Altitude Azimuth Distance (km) Brightness Sun altitude
Rises 06:27:37 0° 170° (S) 3,411 6.4 -7.0°
Reaches altitude 10° 06:30:01 10° 173° (S) 2,469 5.6 -6.6°
Maximum altitude 06:35:29 72° 258° (WSW) 879 2.7 -5.7°
Drops below altitude 10° 06:40:53 10° 343° (NNW) 2,430 4.7 -4.9°
Sets 06:43:13 0° 345° (NNW) 3,354 5.4 -4.5°
